Tracking 25998 objects as of 20-Aug-2022
HD Live streaming from Space Station
objects crossing your sky now

OBJECT F

Track OBJECT F now!
10-day predictions


NORAD ID: 43854
Int'l Code: 2018-104F
Perigee: 467.5 km
Apogee: 486.9 km
Inclination: 85.0 °
Period: 94.0 minutes
Semi major axis: 6848 km
RCS: Unknown
Launch date: December 16, 2018
Source: United States (US)
Launch site: Rocket Lab Launch Complex (RLLC)
aabbcc
Your satellite tracking list
Your tracking list is empty




NASA's NSSDC Master Catalog

Two Line Element Set (TLE):
1 43854U 18104F   22231.39575058  .00016565  00000-0  53431-3 0  9992
2 43854  85.0276   6.6830 0014102  11.6109 348.5460 15.31929448204421
Source of the keplerian elements: Caltech